Regional Weather Roundup
Issued by NWS

Home | Current Version | Previous Version | Graphics & Text | Print | Product List | Glossary On
Versions: 1 2 3 4 5 6 7 8 9 10 11 12 13 14 15 16 17 18 19 20 21 22 23 24 25 26 27 28 29 30 31 32 33 34 35 36 37 38 39 40 41 42 43 44 45 46 47 48 49 50
000
ASUS44 KMEG 230310
RWRTN
TENNESSEE HOURLY STATE WEATHER ROUNDUP
NATIONAL WEATHER SERVICE MEMPHIS TN
900 PM CST SUN JAN 22 2017

TNZ002-004-019-021-049-052-054-088>092-230400-
WEST TENNESSEE

CITY           SKY/WX    TMP DP  RH WIND       PRES   REMARKS
MEMPHIS INTL   CLOUDY    56  54  93 N18G30    29.44R
NWS MEMPHIS      N/A     56 N/A N/A MISG        N/A
JACKSON        CLOUDY    57  54  89 N17G29    29.38R
DYERSBURG      CLOUDY    54  48  82 N23G29    29.44R
UNION CITY     CLOUDY    54  54 100 N18       29.43R
PARIS          CLOUDY    54  52  94 N13       29.39R
HUNTINGDON     CLOUDY    57  54  88 N9G17     29.37R
$$

TNZ008-025-027-028-033-062-065-066-230400-
NORTH MIDDLE TENNESSEE

CITY           SKY/WX    TMP DP  RH WIND       PRES   REMARKS
NASHVILLE      CLOUDY    58  52  80 N17G24    29.29R
PORTLAND       CLOUDY    55  52  88 N13       29.31R
CLARKSVILLE    CLOUDY    57  50  77 N20       29.35S
SMYRNA         CLOUDY    59  52  77 N18G24    29.26S
GALLATIN       CLOUDY    57  52  82 N14G22    29.31S
CROSSVILLE     CLOUDY    52  50  93 N13G18    29.20F
$$

TNZ061-075-076-078-094-096-097-230400-
SOUTH MIDDLE TENNESSEE

CITY           SKY/WX    TMP DP  RH WIND       PRES   REMARKS
TULLAHOMA      MOCLDY    54  52  94 N13       29.21S
WINCHESTER     CLOUDY    54  54 100 NW7       29.20S
MCMINNVILLE    CLOUDY    57  52  82 N16       29.20F
COLUMBIA       MOCLDY    57  57 100 N12G23    29.26R
SHELBYVILLE    MOCLDY    59  54  82 N16       29.23S
$$

TNZ017-018-042-046-047-230400-
NORTHEAST TENNESSEE

CITY           SKY/WX    TMP DP  RH WIND       PRES   REMARKS
TRI CITIES     LGT RAIN  55  50  83 NE9       29.27F
ELIZABETHTON   CLOUDY    57  50  77 SE6       29.27F
$$

TNZ012-013-036-069-073-074-230400-
CENTRAL EAST TENNESSEE

CITY           SKY/WX    TMP DP  RH WIND       PRES   REMARKS
KNOXVILLE      CLOUDY    56  54  93 NE17      29.17F
OAK RIDGE      HVY RAIN  56  54  93 NE6       29.21F FOG
GATLINBURG     MOCLDY    54  54 100 NE13      29.20S
MORRISTOWN     CLOUDY    55  54  94 NE12      29.23F FOG
JACKSBORO      CLOUDY    55  54  94 N3        29.28R
$$

TNZ083-085-099-230400-
SOUTHEAST TENNESSEE

CITY           SKY/WX    TMP DP  RH WIND       PRES   REMARKS
CHATTANOOGA    LGT RAIN  57  57 100 N26G39    29.06S FOG
$$

SKY/WX REPORTED AS FAIR MEANS FEW OR NO CLOUDS BELOW
12 THOUSAND FEET.




USA.gov is the U.S. government's official web portal to all federal, state and local government web resources and services.